Погода в Кестеньге

Россия / Республика Карелия     65°53′11″N   31°49′51″E
темп.,
°C
ветер,
м/с
пор.,
м/с
влажн.,
%
обл.,
%
осадки,
мм/ч
давл.,
гПа
погр.,
м
18 апреля, вс
вс1800:00−1ссз11977 0.0 103410
03:00−2всв119828 0.0 103518
06:00−1вюв2599100 0.0 1035144
09:00+1ююв249692 0.0 1035234
12:00+4ююв249098 0.0 1035373
15:00+5ю358664 0.0 1035554
18:00+4ю1291100 0.0 103443
21:00+3ююз2285100 0.1 103530
19 апреля, пн
пн1900:00+3ю238669 0.0 103451
03:00−1ююв249354 0.0 103455
06:00−1ю27955 0.0 1034124
09:00+4ююз35875 0.0 1033255
12:00+8юз46785 0.0 1032603
15:00+9юз46705 0.0 1031842
18:00+8зюз36775 0.0 1030566
21:00+3ююз23955 0.0 103040
20 апреля, вт
вт2000:00+1юз239684 0.0 103049
03:000юз239670 0.0 103057
06:00+1юз259687 0.0 102995
09:00+5юз2583100 0.0 1028204
12:00+8ююз3572100 0.0 1027615
15:00+9ююз456079 0.0 10251011
18:00+8ю35596 0.0 1023879
21:00+4ю24755 0.0 102261
21 апреля, ср
ср2100:00+2ююв27835 0.0 1021120
03:00+1ююв3888100 0.0 1020165
06:00+1ююв3882100 0.0 1018209
09:00+3ююв3671100 0.0 1016330
12:00+6ююв3657100 0.0 1014762
15:00+8ююв3552100 0.0 10111013
18:00+7вюв3457100 0.0 10091085
21:00+3в2670100 0.0 1007250
22 апреля, чт
чт2200:00+2в2482100 0.0 1005185
03:00+1св1298100 0.2 100491
06:00+1с1399100 0.3 1003168
09:00+1ссз1398100 0.4 1002198
12:00+2сз2380100 0.1 1003691
15:00+4з2368100 0.1 10041018
18:00+4юз2474100 0.0 1005448
21:00+3ю2484100 0.0 1006105